GW0458 Weather Reports


time (UTC)temp
C
wind
direction
speed
KPH
gust
KPH
rain 1hr
cm
rain 24hr
cm
rain mn
cm
humidity
%
barometer
mb
20260505164712 13 207 0.0 0.0 0.00 0.00 0.00 90 1023.9
20260505161708 13 206 0.0 0.0 0.00 0.00 0.00 90 1023.7
20260505151702 12 206 0.0 0.0 0.00 0.00 0.00 93 1023.4
20260505124648 12 206 0.0 0.0 0.00 0.00 0.00 93 1022.0
20260505121646 12 188 1.6 1.6 0.00 0.00 0.00 93 1022.0
20260505114642 12 197 0.0 0.0 0.00 0.00 0.00 94 1021.7
20260505111636 12 168 3.2 3.2 0.00 0.00 0.00 93 1021.5
20260505101629 12 203 0.0 0.0 0.00 0.00 0.00 94 1021.4
20260505094625 12 196 0.0 1.6 0.00 0.00 0.00 94 1021.3
20260505091625 12 186 1.6 1.6 0.00 0.00 0.00 95 1021.0
20260505084623 11 179 1.6 1.6 0.00 0.00 0.00 97 1020.8
20260505081621 11 193 0.0 0.0 0.00 0.00 0.00 96 1020.9
20260505074618 11 185 1.6 1.6 0.00 0.00 0.00 96 1020.6
20260505071616 12 205 0.0 0.0 0.00 0.00 0.00 94 1020.2
20260505064615 12 198 0.0 0.0 0.00 0.00 0.00 92 1019.9
20260505061615 12 208 0.0 0.0 0.00 0.00 0.00 91 1019.5
20260505054613 13 197 0.0 1.6 0.00 0.00 0.00 89 1019.2
20260505051614 14 201 0.0 0.0 0.00 0.00 0.00 85 1019.1
20260505041606 16 200 0.0 0.0 0.00 0.00 0.00 78 1018.4
20260505034605 17 201 0.0 0.0 0.00 0.00 0.00 74 1018.0
20260505031600 20 213 0.0 0.0 0.00 0.00 0.00 67 1017.3
20260505024558 21 205 0.0 0.0 0.00 0.00 0.00 66 1016.9
20260505021553 22 208 0.0 0.0 0.00 0.00 0.00 62 1016.9
20260505014549 23 206 0.0 0.0 0.00 0.00 0.00 57 1016.5
20260505011548 24 206 0.0 0.0 0.00 0.00 0.00 55 1016.7
20260505004546 25 219 0.0 1.6 0.00 0.00 0.00 48 1016.8
20260505001545 25 216 1.6 1.6 0.00 0.00 0.00 47 1016.9
20260504234545 25 208 0.0 1.6 0.00 0.00 0.00 44 1017.1
20260504231543 25 206 1.6 1.6 0.00 0.00 0.00 41 1017.1
20260504224542 26 205 0.0 0.0 0.00 0.00 0.00 39 1017.5
20260504221542 26 204 1.6 1.6 0.00 0.00 0.00 38 1018.0
20260504214538 26 212 0.0 1.6 0.00 0.00 0.00 40 1018.3
20260504211537 26 217 1.6 1.6 0.00 0.00 0.00 40 1018.1
20260504204532 26 201 0.0 0.0 0.00 0.00 0.00 43 1018.4
20260504201527 25 210 0.0 0.0 0.00 0.00 0.00 43 1018.1
20260504194525 26 217 1.6 1.6 0.00 0.00 0.00 44 1018.7
20260504191521 26 211 0.0 0.0 0.00 0.00 0.00 44 1018.7
20260504184521 25 214 1.6 1.6 0.00 0.00 0.00 47 1018.7
20260504181521 25 222 1.6 1.6 0.00 0.00 0.00 48 1018.9
20260504174519 23 215 0.0 1.6 0.00 0.00 0.00 51 1019.1